Retour au catalogue

STARLINK-11335

ActifCommunicationsVLEO
NORAD 61687·PAYLOAD·🇺🇸 United States

Lancé Oct 30, 2024 depuis Vandenberg Space Force Base

Loading…

Prochains Passages (prochaines 24 heures)

TLE

FraisSource: CelesTrak SupGP

Époque: Sep 15, 2026, 01:55 UTC

1 61687C 24195A   26258.08034722 -.00061021  00000+0 -50254-3 0  2586
2 61687  53.1571 172.9864 0001190  84.9507 317.3360 15.69744892    12

Suivez STARLINK-11335 en temps réel avec AllMySat

Download on the App Store